Time,TemperatureF,DewpointF,PressureIn,WindDirection,WindDirectionDegrees,WindSpeedMPH,WindSpeedGustMPH,Humidity,HourlyPrecipIn,Conditions,Clouds,dailyrainin,SoftwareType,DateUTC
2013-02-24 00:00:00,25.5,20.2,29.96,WNW,288,0.0,9.0,80,0.00,,---,0.00,VWS V14.01,2013-02-24 05:00:00,
2013-02-24 00:05:00,25.5,20.2,29.96,WSW,238,0.0,2.0,80,0.00,,---,0.00,VWS V14.01,2013-02-24 05:05:00,
2013-02-24 00:10:00,25.5,20.5,29.96,WNW,285,1.0,2.0,81,0.00,,---,0.00,VWS V14.01,2013-02-24 05:10:00,
2013-02-24 00:15:00,25.5,20.2,29.97,WNW,295,1.0,3.0,80,0.00,,---,0.00,VWS V14.01,2013-02-24 05:15:00,
2013-02-24 00:20:00,25.5,20.5,29.97,West,280,0.0,3.0,81,0.00,,---,0.00,VWS V14.01,2013-02-24 05:20:00,
2013-02-24 00:25:00,25.5,20.2,29.97,West,278,1.0,5.0,80,0.00,,---,0.00,VWS V14.01,2013-02-24 05:25:00,
2013-02-24 00:30:00,25.5,20.2,29.96,NW,314,2.0,8.0,80,0.00,,---,0.00,VWS V14.01,2013-02-24 05:30:00,
2013-02-24 00:35:00,25.4,20.4,29.97,NW,308,1.0,4.0,81,0.00,,---,0.00,VWS V14.01,2013-02-24 05:35:00,
2013-02-24 00:40:00,25.4,20.1,29.97,West,268,3.0,4.0,80,0.00,,---,0.00,VWS V14.01,2013-02-24 05:40:00,
2013-02-24 00:45:00,25.4,20.1,29.97,West,274,1.0,4.0,80,0.00,,---,0.00,VWS V14.01,2013-02-24 05:45:00,
2013-02-24 00:50:00,25.3,20.0,29.97,NW,314,4.0,4.0,80,0.00,,---,0.00,VWS V14.01,2013-02-24 05:50:00,
2013-02-24 00:55:00,25.3,20.0,29.97,West,275,0.0,4.0,80,0.00,,---,0.00,VWS V14.01,2013-02-24 05:55:00,
2013-02-24 01:00:00,25.2,19.9,29.97,WSW,255,0.0,6.0,80,0.00,,---,0.00,VWS V14.01,2013-02-24 06:00:00,
2013-02-24 01:05:00,25.1,19.8,29.97,NW,314,4.0,5.0,80,0.00,,---,0.00,VWS V14.01,2013-02-24 06:05:00,
2013-02-24 01:10:00,25.1,19.8,29.97,NNW,338,1.0,5.0,80,0.00,,---,0.00,VWS V14.01,2013-02-24 06:10:00,
2013-02-24 01:16:00,25.1,19.8,29.97,West,262,0.0,6.0,80,0.00,,---,0.00,VWS V14.01,2013-02-24 06:16:00,
2013-02-24 01:21:00,25.1,19.5,29.97,West,278,3.0,6.0,79,0.00,,---,0.00,VWS V14.01,2013-02-24 06:21:00,
2013-02-24 01:26:00,25.1,19.5,29.98,West,275,0.0,7.0,79,0.00,,---,0.00,VWS V14.01,2013-02-24 06:26:00,
2013-02-24 01:30:00,25.2,19.6,29.99,WNW,282,1.0,7.0,79,0.00,,---,0.00,VWS V14.01,2013-02-24 06:30:00,
2013-02-24 01:31:00,25.0,19.7,29.98,SSW,203,2.0,7.0,80,0.00,,---,0.00,VWS V14.01,2013-02-24 06:31:00,
2013-02-24 01:36:00,25.1,19.5,29.98,West,276,0.0,5.0,79,0.00,,---,0.00,VWS V14.01,2013-02-24 06:36:00,
2013-02-24 01:41:00,25.1,19.5,29.98,WSW,242,1.0,9.0,79,0.00,,---,0.00,VWS V14.01,2013-02-24 06:41:00,
2013-02-24 01:46:00,25.1,19.5,29.98,WSW,249,3.0,9.0,79,0.00,,---,0.00,VWS V14.01,2013-02-24 06:46:00,
2013-02-24 01:51:00,25.1,19.5,29.98,West,264,1.0,9.0,79,0.00,,---,0.00,VWS V14.01,2013-02-24 06:51:00,
2013-02-24 01:56:00,25.1,19.5,29.99,West,271,1.0,9.0,79,0.00,,---,0.00,VWS V14.01,2013-02-24 06:56:00,
2013-02-24 02:00:00,25.2,19.9,29.99,WSW,248,2.0,6.0,80,0.00,,---,0.00,VWS V14.01,2013-02-24 07:00:00,
2013-02-24 02:01:00,25.1,19.5,29.99,West,276,3.0,9.0,79,0.00,,---,0.00,VWS V14.01,2013-02-24 07:01:00,
2013-02-24 02:06:00,25.1,19.5,29.99,NW,326,2.0,6.0,79,0.00,,---,0.00,VWS V14.01,2013-02-24 07:06:00,
2013-02-24 02:11:00,25.1,19.5,29.99,NW,307,1.0,6.0,79,0.00,,---,0.00,VWS V14.01,2013-02-24 07:11:00,
2013-02-24 02:16:00,25.1,19.5,29.99,WSW,256,1.0,6.0,79,0.00,,---,0.00,VWS V14.01,2013-02-24 07:16:00,
2013-02-24 02:21:00,25.1,19.5,29.99,WSW,249,6.0,6.0,79,0.00,,---,0.00,VWS V14.01,2013-02-24 07:21:00,
2013-02-24 02:26:00,25.2,19.6,29.99,WSW,246,3.0,7.0,79,0.00,,---,0.00,VWS V14.01,2013-02-24 07:26:00,
2013-02-24 02:30:00,25.5,19.6,29.99,WSW,239,1.0,8.0,78,0.00,,---,0.00,VWS V14.01,2013-02-24 07:30:00,
2013-02-24 02:31:00,25.2,19.6,29.99,SW,228,0.0,7.0,79,0.00,,---,0.00,VWS V14.01,2013-02-24 07:31:00,
2013-02-24 02:36:00,25.2,19.6,29.99,SW,229,0.0,4.0,79,0.00,,---,0.00,VWS V14.01,2013-02-24 07:36:00,
2013-02-24 02:41:00,25.2,19.6,29.99,West,267,0.0,5.0,79,0.00,,---,0.00,VWS V14.01,2013-02-24 07:41:00,
2013-02-24 02:46:00,25.2,19.6,29.99,WSW,243,0.0,5.0,79,0.00,,---,0.00,VWS V14.01,2013-02-24 07:46:00,
2013-02-24 02:51:00,25.2,19.6,29.99,WSW,256,0.0,6.0,79,0.00,,---,0.00,VWS V14.01,2013-02-24 07:51:00,
2013-02-24 02:56:00,25.2,19.9,29.99,WSW,243,1.0,6.0,80,0.00,,---,0.00,VWS V14.01,2013-02-24 07:56:00,
2013-02-24 03:00:00,25.5,19.6,29.98,West,277,2.0,7.0,78,0.00,,---,0.00,VWS V14.01,2013-02-24 08:00:00,
2013-02-24 03:01:00,25.2,19.9,29.99,West,277,1.0,6.0,80,0.00,,---,0.00,VWS V14.01,2013-02-24 08:01:00,
2013-02-24 03:06:00,25.2,19.9,29.99,WNW,293,1.0,3.0,80,0.00,,---,0.00,VWS V14.01,2013-02-24 08:06:00,
2013-02-24 03:11:00,25.3,20.0,29.99,WSW,246,0.0,4.0,80,0.00,,---,0.00,VWS V14.01,2013-02-24 08:11:00,
2013-02-24 03:16:00,25.3,20.0,29.99,SSW,205,3.0,4.0,80,0.00,,---,0.00,VWS V14.01,2013-02-24 08:16:00,
2013-02-24 03:21:00,25.3,19.7,29.99,South,190,2.0,8.0,79,0.00,,---,0.00,VWS V14.01,2013-02-24 08:21:00,
2013-02-24 03:26:00,25.4,19.8,29.99,SW,214,2.0,8.0,79,0.00,,---,0.00,VWS V14.01,2013-02-24 08:26:00,
2013-02-24 03:30:00,25.4,19.5,30.00,SSW,210,0.0,5.0,78,0.00,,---,0.00,VWS V14.01,2013-02-24 08:30:00,
2013-02-24 03:31:00,25.5,19.6,29.99,SSW,208,2.0,8.0,78,0.00,,---,0.00,VWS V14.01,2013-02-24 08:31:00,
2013-02-24 03:36:00,25.5,19.6,29.99,West,263,1.0,7.0,78,0.00,,---,0.00,VWS V14.01,2013-02-24 08:36:00,
2013-02-24 03:41:00,25.5,19.6,29.98,NW,315,1.0,7.0,78,0.00,,---,0.00,VWS V14.01,2013-02-24 08:41:00,
2013-02-24 03:46:00,25.6,19.4,29.98,WNW,302,2.0,7.0,77,0.00,,---,0.00,VWS V14.01,2013-02-24 08:46:00,
2013-02-24 03:51:00,25.5,19.6,29.98,NNW,347,3.0,7.0,78,0.00,,---,0.00,VWS V14.01,2013-02-24 08:51:00,
2013-02-24 03:56:00,25.5,19.6,29.98,West,264,2.0,7.0,78,0.00,,---,0.00,VWS V14.01,2013-02-24 08:56:00,
2013-02-24 04:00:00,25.5,19.6,30.01,WNW,295,0.0,5.0,78,0.00,,---,0.00,VWS V14.01,2013-02-24 09:00:00,
2013-02-24 04:01:00,25.5,19.6,29.98,NNW,335,1.0,7.0,78,0.00,,---,0.00,VWS V14.01,2013-02-24 09:01:00,
2013-02-24 04:06:00,25.5,19.6,29.99,NW,311,1.0,4.0,78,0.00,,---,0.00,VWS V14.01,2013-02-24 09:06:00,
2013-02-24 04:11:00,25.5,19.6,29.99,West,259,0.0,5.0,78,0.00,,---,0.00,VWS V14.01,2013-02-24 09:11:00,
2013-02-24 04:16:00,25.5,19.6,29.99,WNW,302,1.0,5.0,78,0.00,,---,0.00,VWS V14.01,2013-02-24 09:16:00,
2013-02-24 04:21:00,25.5,19.6,29.99,NW,306,1.0,5.0,78,0.00,,---,0.00,VWS V14.01,2013-02-24 09:21:00,
2013-02-24 04:26:00,25.5,19.6,30.00,WNW,291,0.0,5.0,78,0.00,,---,0.00,VWS V14.01,2013-02-24 09:26:00,
2013-02-24 04:30:00,25.5,19.6,30.01,West,276,1.0,7.0,78,0.00,,---,0.00,VWS V14.01,2013-02-24 09:30:00,
2013-02-24 04:31:00,25.5,19.9,30.00,WSW,246,0.0,5.0,79,0.00,,---,0.00,VWS V14.01,2013-02-24 09:31:00,
2013-02-24 04:36:00,25.4,19.5,30.00,WNW,291,0.0,5.0,78,0.00,,---,0.00,VWS V14.01,2013-02-24 09:36:00,
2013-02-24 04:41:00,25.5,19.6,30.00,NW,314,2.0,5.0,78,0.00,,---,0.00,VWS V14.01,2013-02-24 09:41:00,
2013-02-24 04:46:00,25.5,19.6,30.00,West,274,2.0,5.0,78,0.00,,---,0.00,VWS V14.01,2013-02-24 09:46:00,
2013-02-24 04:51:00,25.5,19.6,30.00,WNW,294,0.0,5.0,78,0.00,,---,0.00,VWS V14.01,2013-02-24 09:51:00,
2013-02-24 04:56:00,25.5,19.6,30.00,WNW,303,0.0,5.0,78,0.00,,---,0.00,VWS V14.01,2013-02-24 09:56:00,
2013-02-24 05:00:00,25.5,19.6,30.03,WNW,283,2.0,5.0,78,0.00,,---,0.00,VWS V14.01,2013-02-24 10:00:00,
2013-02-24 05:01:00,25.5,19.6,30.01,West,259,0.0,5.0,78,0.00,,---,0.00,VWS V14.01,2013-02-24 10:01:00,
2013-02-24 05:06:00,25.5,19.6,30.01,West,274,3.0,7.0,78,0.00,,---,0.00,VWS V14.01,2013-02-24 10:06:00,
2013-02-24 05:11:00,25.5,19.6,30.01,WNW,302,1.0,7.0,78,0.00,,---,0.00,VWS V14.01,2013-02-24 10:11:00,
2013-02-24 05:16:00,25.5,19.6,30.01,WNW,285,3.0,7.0,78,0.00,,---,0.00,VWS V14.01,2013-02-24 10:16:00,
2013-02-24 05:21:00,25.5,19.6,30.01,WSW,246,1.0,7.0,78,0.00,,---,0.00,VWS V14.01,2013-02-24 10:21:00,
2013-02-24 05:26:00,25.5,19.6,30.01,West,263,0.0,7.0,78,0.00,,---,0.00,VWS V14.01,2013-02-24 10:26:00,
2013-02-24 05:30:00,25.3,19.4,30.03,WNW,302,2.0,7.0,78,0.00,,---,0.00,VWS V14.01,2013-02-24 10:30:00,
2013-02-24 05:31:00,25.5,19.6,30.01,WNW,288,2.0,7.0,78,0.00,,---,0.00,VWS V14.01,2013-02-24 10:31:00,
2013-02-24 05:36:00,25.5,19.6,30.01,WNW,299,0.0,3.0,78,0.00,,---,0.00,VWS V14.01,2013-02-24 10:36:00,
2013-02-24 05:41:00,25.5,19.6,30.02,NW,307,1.0,4.0,78,0.00,,---,0.00,VWS V14.01,2013-02-24 10:41:00,
2013-02-24 05:46:00,25.5,19.6,30.02,NW,309,1.0,4.0,78,0.00,,---,0.00,VWS V14.01,2013-02-24 10:46:00,
2013-02-24 05:51:00,25.5,19.6,30.03,WNW,298,0.0,4.0,78,0.00,,---,0.00,VWS V14.01,2013-02-24 10:51:00,
2013-02-24 05:56:00,25.5,19.6,30.03,NW,316,0.0,5.0,78,0.00,,---,0.00,VWS V14.01,2013-02-24 10:56:00,
2013-02-24 06:00:00,25.3,19.1,30.04,WSW,244,2.0,6.0,77,0.00,,---,0.00,VWS V14.01,2013-02-24 11:00:00,
2013-02-24 06:01:00,25.5,19.6,30.03,NW,315,1.0,5.0,78,0.00,,---,0.00,VWS V14.01,2013-02-24 11:01:00,
2013-02-24 06:06:00,25.4,19.5,30.03,WNW,284,1.0,4.0,78,0.00,,---,0.00,VWS V14.01,2013-02-24 11:06:00,
2013-02-24 06:11:00,25.4,19.5,30.03,WNW,288,5.0,7.0,78,0.00,,---,0.00,VWS V14.01,2013-02-24 11:11:00,
2013-02-24 06:16:00,25.4,19.5,30.03,SW,229,0.0,7.0,78,0.00,,---,0.00,VWS V14.01,2013-02-24 11:16:00,
2013-02-24 06:21:00,25.4,19.5,30.03,West,260,1.0,7.0,78,0.00,,---,0.00,VWS V14.01,2013-02-24 11:21:00,
2013-02-24 06:26:00,25.4,19.2,30.03,NE,46,1.0,7.0,77,0.00,,---,0.00,VWS V14.01,2013-02-24 11:26:00,
2013-02-24 06:30:00,25.1,19.8,30.05,WSW,249,4.0,6.0,80,0.00,,---,0.00,VWS V14.01,2013-02-24 11:30:00,
2013-02-24 06:31:00,25.3,19.4,30.03,SSW,200,1.0,7.0,78,0.00,,---,0.00,VWS V14.01,2013-02-24 11:31:00,
2013-02-24 06:36:00,25.3,19.1,30.03,NW,317,2.0,4.0,77,0.00,,---,0.00,VWS V14.01,2013-02-24 11:36:00,
2013-02-24 06:41:00,25.4,19.2,30.03,WSW,240,2.0,5.0,77,0.00,,---,0.00,VWS V14.01,2013-02-24 11:41:00,
2013-02-24 06:46:00,25.3,19.1,30.03,WSW,243,0.0,5.0,77,0.00,,---,0.00,VWS V14.01,2013-02-24 11:46:00,
2013-02-24 06:51:00,25.3,18.8,30.03,WSW,251,1.0,5.0,76,0.00,,---,0.00,VWS V14.01,2013-02-24 11:51:00,
2013-02-24 06:56:00,25.3,19.1,30.03,SW,233,4.0,5.0,77,0.00,,---,0.00,VWS V14.01,2013-02-24 11:56:00,
2013-02-24 07:00:00,24.7,20.0,30.06,WSW,251,3.0,8.0,82,0.00,,---,0.00,VWS V14.01,2013-02-24 12:00:00,
2013-02-24 07:01:00,25.3,19.1,30.04,WSW,242,6.0,6.0,77,0.00,,---,0.00,VWS V14.01,2013-02-24 12:01:00,
2013-02-24 07:06:00,25.3,19.1,30.03,WSW,238,3.0,5.0,77,0.00,,---,0.00,VWS V14.01,2013-02-24 12:06:00,
2013-02-24 07:11:00,25.3,19.1,30.04,SW,232,2.0,5.0,77,0.00,,---,0.00,VWS V14.01,2013-02-24 12:11:00,
2013-02-24 07:17:00,25.2,19.3,30.04,WSW,246,1.0,5.0,78,0.00,,---,0.00,VWS V14.01,2013-02-24 12:17:00,
2013-02-24 07:22:00,25.2,19.3,30.04,South,188,1.0,5.0,78,0.00,,---,0.00,VWS V14.01,2013-02-24 12:22:00,
2013-02-24 07:27:00,25.2,19.6,30.04,SSW,212,3.0,6.0,79,0.00,,---,0.00,VWS V14.01,2013-02-24 12:27:00,
2013-02-24 07:30:00,24.5,20.4,30.07,SW,219,2.0,8.0,84,0.00,,---,0.00,VWS V14.01,2013-02-24 12:30:00,
2013-02-24 07:32:00,25.1,19.8,30.05,SSW,205,4.0,6.0,80,0.00,,---,0.00,VWS V14.01,2013-02-24 12:32:00,
2013-02-24 07:37:00,25.0,20.3,30.05,WSW,246,0.0,7.0,82,0.00,,---,0.00,VWS V14.01,2013-02-24 12:37:00,
2013-02-24 07:42:00,24.9,20.2,30.05,South,177,5.0,7.0,82,0.00,,---,0.00,VWS V14.01,2013-02-24 12:42:00,
2013-02-24 07:47:00,24.7,20.0,30.05,WSW,251,5.0,7.0,82,0.00,,---,0.00,VWS V14.01,2013-02-24 12:47:00,
2013-02-24 07:52:00,24.7,20.0,30.05,WSW,238,0.0,7.0,82,0.00,,---,0.00,VWS V14.01,2013-02-24 12:52:00,
2013-02-24 07:57:00,24.7,20.0,30.05,WSW,238,3.0,8.0,82,0.00,,---,0.00,VWS V14.01,2013-02-24 12:57:00,
2013-02-24 08:00:00,25.0,20.3,30.08,WSW,238,5.0,9.0,82,0.00,,---,0.00,VWS V14.01,2013-02-24 13:00:00,
2013-02-24 08:02:00,24.7,20.0,30.06,WSW,251,3.0,8.0,82,0.00,,---,0.00,VWS V14.01,2013-02-24 13:02:00,
2013-02-24 08:07:00,24.6,19.9,30.06,SW,219,3.0,8.0,82,0.00,,---,0.00,VWS V14.01,2013-02-24 13:07:00,
2013-02-24 08:12:00,24.6,20.2,30.06,West,266,1.0,8.0,83,0.00,,---,0.00,VWS V14.01,2013-02-24 13:12:00,
2013-02-24 08:17:00,24.6,20.2,30.06,SW,224,5.0,8.0,83,0.00,,---,0.00,VWS V14.01,2013-02-24 13:17:00,
2013-02-24 08:22:00,24.5,20.1,30.06,WNW,284,2.0,8.0,83,0.00,,---,0.00,VWS V14.01,2013-02-24 13:22:00,
2013-02-24 08:27:00,24.5,20.1,30.07,SSW,203,2.0,8.0,83,0.00,,---,0.00,VWS V14.01,2013-02-24 13:27:00,
2013-02-24 08:30:00,25.6,20.9,30.09,SW,227,2.0,9.0,82,0.00,,---,0.00,VWS V14.01,2013-02-24 13:30:00,
2013-02-24 08:32:00,24.5,20.4,30.07,SW,229,3.0,3.0,84,0.00,,---,0.00,VWS V14.01,2013-02-24 13:32:00,
2013-02-24 08:37:00,24.5,20.4,30.07,West,263,2.0,8.0,84,0.00,,---,0.00,VWS V14.01,2013-02-24 13:37:00,
2013-02-24 08:42:00,24.5,20.1,30.07,WSW,243,4.0,8.0,83,0.00,,---,0.00,VWS V14.01,2013-02-24 13:42:00,
2013-02-24 08:47:00,24.5,20.1,30.07,West,264,1.0,8.0,83,0.00,,---,0.00,VWS V14.01,2013-02-24 13:47:00,
2013-02-24 08:52:00,24.6,20.2,30.07,WSW,238,2.0,8.0,83,0.00,,---,0.00,VWS V14.01,2013-02-24 13:52:00,
2013-02-24 08:57:00,25.0,20.6,30.07,West,278,7.0,9.0,83,0.00,,---,0.00,VWS V14.01,2013-02-24 13:57:00,
2013-02-24 09:00:00,26.7,21.4,30.09,North,356,3.0,9.0,80,0.00,,---,0.00,VWS V14.01,2013-02-24 14:00:00,
2013-02-24 09:02:00,24.9,20.2,30.08,WSW,242,3.0,5.0,82,0.00,,---,0.00,VWS V14.01,2013-02-24 14:02:00,
2013-02-24 09:07:00,25.0,20.3,30.08,West,259,1.0,9.0,82,0.00,,---,0.00,VWS V14.01,2013-02-24 14:07:00,
2013-02-24 09:12:00,25.0,20.3,30.08,WSW,242,3.0,9.0,82,0.00,,---,0.00,VWS V14.01,2013-02-24 14:12:00,
2013-02-24 09:17:00,25.0,20.3,30.08,SW,236,1.0,9.0,82,0.00,,---,0.00,VWS V14.01,2013-02-24 14:17:00,
2013-02-24 09:22:00,25.1,20.4,30.09,SSW,212,3.0,9.0,82,0.00,,---,0.00,VWS V14.01,2013-02-24 14:22:00,
2013-02-24 09:27:00,25.4,20.7,30.09,WSW,243,5.0,9.0,82,0.00,,---,0.00,VWS V14.01,2013-02-24 14:27:00,
2013-02-24 09:30:00,28.6,22.6,30.10,West,274,1.0,8.0,78,0.00,,---,0.00,VWS V14.01,2013-02-24 14:30:00,
2013-02-24 09:32:00,25.6,20.9,30.09,West,263,5.0,5.0,82,0.00,,---,0.00,VWS V14.01,2013-02-24 14:32:00,
2013-02-24 09:37:00,25.7,20.7,30.09,WSW,243,5.0,7.0,81,0.00,,---,0.00,VWS V14.01,2013-02-24 14:37:00,
2013-02-24 09:42:00,25.7,21.0,30.09,SW,231,1.0,8.0,82,0.00,,---,0.00,VWS V14.01,2013-02-24 14:42:00,
2013-02-24 09:48:00,25.7,21.0,30.09,South,187,3.0,8.0,82,0.00,,---,0.00,VWS V14.01,2013-02-24 14:48:00,
2013-02-24 09:52:00,26.0,21.3,30.09,WSW,245,3.0,8.0,82,0.00,,---,0.00,VWS V14.01,2013-02-24 14:52:00,
2013-02-24 09:58:00,26.3,21.0,30.09,SW,217,2.0,9.0,80,0.00,,---,0.00,VWS V14.01,2013-02-24 14:58:00,
2013-02-24 10:00:00,30.2,23.6,30.10,WSW,245,3.0,7.0,76,0.00,,---,0.00,VWS V14.01,2013-02-24 15:00:00,
2013-02-24 10:03:00,26.7,21.4,30.09,SW,231,2.0,5.0,80,0.00,,---,0.00,VWS V14.01,2013-02-24 15:03:00,
2013-02-24 10:08:00,27.1,21.5,30.10,West,263,3.0,5.0,79,0.00,,---,0.00,VWS V14.01,2013-02-24 15:08:00,
2013-02-24 10:13:00,27.2,21.6,30.10,SSE,148,2.0,8.0,79,0.00,,---,0.00,VWS V14.01,2013-02-24 15:13:00,
2013-02-24 10:18:00,27.7,22.0,30.10,SW,229,2.0,8.0,79,0.00,,---,0.00,VWS V14.01,2013-02-24 15:18:00,
2013-02-24 10:23:00,28.1,22.1,30.10,SSW,205,0.0,8.0,78,0.00,,---,0.00,VWS V14.01,2013-02-24 15:23:00,
2013-02-24 10:28:00,28.5,22.5,30.10,West,281,3.0,8.0,78,0.00,,---,0.00,VWS V14.01,2013-02-24 15:28:00,
2013-02-24 10:30:00,31.5,23.9,30.11,West,264,3.0,10.0,73,0.00,,---,0.00,VWS V14.01,2013-02-24 15:30:00,
2013-02-24 10:33:00,28.6,22.3,30.10,West,267,4.0,6.0,77,0.00,,---,0.00,VWS V14.01,2013-02-24 15:33:00,
2013-02-24 10:38:00,28.7,22.7,30.10,West,264,2.0,6.0,78,0.00,,---,0.00,VWS V14.01,2013-02-24 15:38:00,
2013-02-24 10:43:00,29.2,22.9,30.10,NW,307,5.0,6.0,77,0.00,,---,0.00,VWS V14.01,2013-02-24 15:43:00,
2013-02-24 10:48:00,29.4,23.1,30.10,West,278,6.0,7.0,77,0.00,,---,0.00,VWS V14.01,2013-02-24 15:48:00,
2013-02-24 10:53:00,29.6,23.0,30.11,WSW,256,4.0,7.0,76,0.00,,---,0.00,VWS V14.01,2013-02-24 15:53:00,
2013-02-24 10:58:00,29.8,23.2,30.11,South,169,1.0,7.0,76,0.00,,---,0.00,VWS V14.01,2013-02-24 15:58:00,
2013-02-24 11:00:00,32.7,24.4,30.12,West,269,3.0,8.0,71,0.00,,---,0.00,VWS V14.01,2013-02-24 16:00:00,
2013-02-24 11:03:00,30.3,23.3,30.11,NW,308,4.0,6.0,75,0.00,,---,0.00,VWS V14.01,2013-02-24 16:03:00,
2013-02-24 11:08:00,30.2,23.2,30.10,West,263,5.0,10.0,75,0.00,,---,0.00,VWS V14.01,2013-02-24 16:08:00,
2013-02-24 11:13:00,30.2,23.2,30.11,NW,320,2.0,10.0,75,0.00,,---,0.00,VWS V14.01,2013-02-24 16:13:00,
2013-02-24 11:18:00,30.4,23.4,30.11,SW,217,7.0,10.0,75,0.00,,---,0.00,VWS V14.01,2013-02-24 16:18:00,
2013-02-24 11:23:00,30.9,23.9,30.11,West,263,3.0,10.0,75,0.00,,---,0.00,VWS V14.01,2013-02-24 16:23:00,
2013-02-24 11:28:00,31.1,24.1,30.11,WNW,301,3.0,10.0,75,0.00,,---,0.00,VWS V14.01,2013-02-24 16:28:00,
2013-02-24 11:30:00,32.6,23.2,30.12,WNW,285,4.0,9.0,68,0.00,,---,0.00,VWS V14.01,2013-02-24 16:30:00,
2013-02-24 11:33:00,31.4,23.8,30.11,West,272,2.0,7.0,73,0.00,,---,0.00,VWS V14.01,2013-02-24 16:33:00,
2013-02-24 11:38:00,31.5,23.5,30.11,West,277,1.0,7.0,72,0.00,,---,0.00,VWS V14.01,2013-02-24 16:38:00,
2013-02-24 11:43:00,31.7,23.7,30.12,West,276,3.0,7.0,72,0.00,,---,0.00,VWS V14.01,2013-02-24 16:43:00,
2013-02-24 11:48:00,31.9,23.6,30.12,West,269,4.0,7.0,71,0.00,,---,0.00,VWS V14.01,2013-02-24 16:48:00,
2013-02-24 11:53:00,32.0,23.7,30.12,NW,316,1.0,8.0,71,0.00,,---,0.00,VWS V14.01,2013-02-24 16:53:00,
2013-02-24 11:58:00,32.3,24.3,30.12,WSW,253,3.0,8.0,72,0.00,,---,0.00,VWS V14.01,2013-02-24 16:58:00,
2013-02-24 12:00:00,33.5,23.7,30.12,SW,229,7.0,11.0,67,0.01,,---,0.01,VWS V14.01,2013-02-24 17:00:00,
2013-02-24 12:03:00,32.8,24.5,30.12,NW,314,4.0,4.0,71,0.00,,---,0.00,VWS V14.01,2013-02-24 17:03:00,
2013-02-24 12:08:00,32.7,24.0,30.12,West,281,2.0,6.0,70,0.00,,---,0.00,VWS V14.01,2013-02-24 17:08:00,
2013-02-24 12:13:00,32.3,23.3,30.12,NW,304,1.0,7.0,69,0.00,,---,0.00,VWS V14.01,2013-02-24 17:13:00,
2013-02-24 12:18:00,32.5,23.8,30.12,NW,312,4.0,7.0,70,0.00,,---,0.00,VWS V14.01,2013-02-24 17:18:00,
2013-02-24 12:23:00,32.9,24.2,30.12,SW,231,4.0,7.0,70,0.00,,---,0.00,VWS V14.01,2013-02-24 17:23:00,
2013-02-24 12:28:00,32.6,23.6,30.12,SW,229,1.0,9.0,69,0.00,,---,0.00,VWS V14.01,2013-02-24 17:28:00,
2013-02-24 12:30:00,34.5,23.6,30.12,West,270,1.0,10.0,64,0.01,,---,0.01,VWS V14.01,2013-02-24 17:30:00,
2013-02-24 12:33:00,32.5,23.1,30.12,SW,229,5.0,7.0,68,0.00,,---,0.00,VWS V14.01,2013-02-24 17:33:00,
2013-02-24 12:38:00,32.1,22.4,30.12,WSW,245,4.0,11.0,67,0.01,,---,0.01,VWS V14.01,2013-02-24 17:38:00,
2013-02-24 12:43:00,32.3,22.9,30.12,WSW,242,5.0,11.0,68,0.01,,---,0.01,VWS V14.01,2013-02-24 17:43:00,
2013-02-24 12:48:00,32.7,23.7,30.12,West,265,1.0,11.0,69,0.01,,---,0.01,VWS V14.01,2013-02-24 17:48:00,
2013-02-24 12:53:00,33.0,23.2,30.12,NE,47,1.0,11.0,67,0.01,,---,0.01,VWS V14.01,2013-02-24 17:53:00,
2013-02-24 12:58:00,33.6,24.2,30.12,WNW,301,2.0,11.0,68,0.01,,---,0.01,VWS V14.01,2013-02-24 17:58:00,
2013-02-24 13:00:00,35.0,24.4,30.11,WNW,286,3.0,11.0,65,0.01,,---,0.01,VWS V14.01,2013-02-24 18:00:00,
2013-02-24 13:03:00,33.5,23.4,30.12,SW,222,6.0,7.0,66,0.01,,---,0.01,VWS V14.01,2013-02-24 18:03:00,
2013-02-24 13:08:00,33.0,23.2,30.12,SSW,194,1.0,9.0,67,0.01,,---,0.01,VWS V14.01,2013-02-24 18:08:00,
2013-02-24 13:13:00,33.0,23.6,30.12,West,273,6.0,9.0,68,0.01,,---,0.01,VWS V14.01,2013-02-24 18:13:00,
2013-02-24 13:18:00,33.2,23.5,30.12,South,181,4.0,9.0,67,0.01,,---,0.01,VWS V14.01,2013-02-24 18:18:00,
2013-02-24 13:23:00,33.8,24.4,30.12,SW,224,1.0,9.0,68,0.01,,---,0.01,VWS V14.01,2013-02-24 18:23:00,
2013-02-24 13:28:00,34.5,24.3,30.12,South,173,2.0,9.0,66,0.01,,---,0.01,VWS V14.01,2013-02-24 18:28:00,
2013-02-24 13:30:00,35.9,24.5,30.11,NNW,329,5.0,9.0,63,0.01,,---,0.02,VWS V14.01,2013-02-24 18:30:00,
2013-02-24 13:33:00,34.6,24.4,30.12,NW,304,2.0,6.0,66,0.01,,---,0.01,VWS V14.01,2013-02-24 18:33:00,
2013-02-24 13:38:00,35.0,24.4,30.12,WNW,284,0.0,7.0,65,0.01,,---,0.01,VWS V14.01,2013-02-24 18:38:00,
2013-02-24 13:43:00,35.1,24.2,30.12,West,267,2.0,11.0,64,0.01,,---,0.01,VWS V14.01,2013-02-24 18:43:00,
2013-02-24 13:48:00,35.2,24.3,30.11,WNW,290,4.0,11.0,64,0.01,,---,0.01,VWS V14.01,2013-02-24 18:48:00,
2013-02-24 13:53:00,35.4,24.8,30.11,West,281,9.0,11.0,65,0.01,,---,0.01,VWS V14.01,2013-02-24 18:53:00,
2013-02-24 13:58:00,35.0,24.1,30.11,NW,318,4.0,11.0,64,0.01,,---,0.01,VWS V14.01,2013-02-24 18:58:00,
2013-02-24 14:00:00,36.1,25.9,30.11,WNW,293,4.0,10.0,66,0.02,,---,0.03,VWS V14.01,2013-02-24 19:00:00,
2013-02-24 14:03:00,35.0,24.1,30.11,WNW,300,5.0,9.0,64,0.00,,---,0.01,VWS V14.01,2013-02-24 19:03:00,
2013-02-24 14:08:00,35.0,24.4,30.11,WNW,284,2.0,9.0,65,0.00,,---,0.01,VWS V14.01,2013-02-24 19:08:00,
2013-02-24 14:13:00,35.4,24.8,30.11,WSW,238,6.0,9.0,65,0.00,,---,0.01,VWS V14.01,2013-02-24 19:13:00,
2013-02-24 14:18:00,36.0,24.6,30.11,SW,226,1.0,9.0,63,0.00,,---,0.01,VWS V14.01,2013-02-24 19:18:00,
2013-02-24 14:23:00,36.1,24.4,30.11,WNW,301,2.0,9.0,62,0.01,,---,0.02,VWS V14.01,2013-02-24 19:23:00,
2013-02-24 14:29:00,36.3,25.3,30.11,WNW,291,2.0,9.0,64,0.01,,---,0.02,VWS V14.01,2013-02-24 19:29:00,
2013-02-24 14:30:00,35.9,24.5,30.12,WNW,286,2.0,11.0,63,0.03,,---,0.04,VWS V14.01,2013-02-24 19:30:00,
2013-02-24 14:34:00,35.7,25.1,30.11,WNW,300,3.0,8.0,65,0.01,,---,0.02,VWS V14.01,2013-02-24 19:34:00,
2013-02-24 14:39:00,35.9,24.2,30.11,WSW,242,5.0,8.0,62,0.01,,---,0.02,VWS V14.01,2013-02-24 19:39:00,
2013-02-24 14:44:00,35.7,25.1,30.11,WNW,298,2.0,8.0,65,0.01,,---,0.02,VWS V14.01,2013-02-24 19:44:00,
2013-02-24 14:49:00,35.8,24.5,30.11,WNW,286,3.0,8.0,63,0.01,,---,0.02,VWS V14.01,2013-02-24 19:49:00,
2013-02-24 14:54:00,36.0,25.0,30.11,WNW,295,5.0,10.0,64,0.02,,---,0.03,VWS V14.01,2013-02-24 19:54:00,
2013-02-24 14:59:00,36.0,25.0,30.11,WNW,285,3.0,10.0,64,0.02,,---,0.03,VWS V14.01,2013-02-24 19:59:00,
2013-02-24 15:00:00,36.3,24.5,30.12,West,266,1.0,9.0,62,0.03,,---,0.05,VWS V14.01,2013-02-24 20:00:00,
2013-02-24 15:04:00,36.2,25.2,30.11,WNW,285,5.0,7.0,64,0.02,,---,0.03,VWS V14.01,2013-02-24 20:04:00,
2013-02-24 15:09:00,36.1,25.1,30.11,NW,304,2.0,8.0,64,0.02,,---,0.03,VWS V14.01,2013-02-24 20:09:00,
2013-02-24 15:14:00,36.0,25.0,30.11,WNW,295,4.0,8.0,64,0.02,,---,0.03,VWS V14.01,2013-02-24 20:14:00,
2013-02-24 15:19:00,36.3,26.4,30.11,NW,317,4.0,11.0,67,0.03,,---,0.04,VWS V14.01,2013-02-24 20:19:00,
2013-02-24 15:24:00,35.7,24.4,30.11,NW,323,2.0,11.0,63,0.03,,---,0.04,VWS V14.01,2013-02-24 20:24:00,
2013-02-24 15:29:00,35.7,24.7,30.12,WNW,288,3.0,11.0,64,0.03,,---,0.04,VWS V14.01,2013-02-24 20:29:00,
2013-02-24 15:30:00,36.3,24.5,30.13,WNW,303,3.0,9.0,62,0.02,,---,0.05,VWS V14.01,2013-02-24 20:30:00,
2013-02-24 15:34:00,36.3,25.3,30.12,SW,233,4.0,4.0,64,0.02,,---,0.04,VWS V14.01,2013-02-24 20:34:00,
2013-02-24 15:39:00,36.9,25.9,30.12,WNW,283,2.0,5.0,64,0.02,,---,0.04,VWS V14.01,2013-02-24 20:39:00,
2013-02-24 15:44:00,37.2,25.0,30.12,NW,307,8.0,9.0,61,0.02,,---,0.04,VWS V14.01,2013-02-24 20:44:00,
2013-02-24 15:49:00,36.1,24.0,30.12,WSW,247,2.0,9.0,61,0.02,,---,0.04,VWS V14.01,2013-02-24 20:49:00,
2013-02-24 15:54:00,36.3,24.5,30.12,NW,326,2.0,9.0,62,0.02,,---,0.04,VWS V14.01,2013-02-24 20:54:00,
2013-02-24 15:59:00,36.3,24.5,30.12,NNW,332,6.0,9.0,62,0.02,,---,0.04,VWS V14.01,2013-02-24 20:59:00,
2013-02-24 16:00:00,36.1,24.4,30.13,NW,317,2.0,7.0,62,0.01,,---,0.05,VWS V14.01,2013-02-24 21:00:00,
2013-02-24 16:04:00,36.5,25.1,30.12,NNW,335,7.0,7.0,63,0.02,,---,0.05,VWS V14.01,2013-02-24 21:04:00,
2013-02-24 16:09:00,36.8,25.8,30.12,WNW,300,2.0,7.0,64,0.02,,---,0.05,VWS V14.01,2013-02-24 21:09:00,
2013-02-24 16:14:00,36.3,24.9,30.12,NW,323,4.0,9.0,63,0.02,,---,0.05,VWS V14.01,2013-02-24 21:14:00,
2013-02-24 16:19:00,36.6,24.8,30.12,West,266,4.0,9.0,62,0.02,,---,0.05,VWS V14.01,2013-02-24 21:19:00,
2013-02-24 16:24:00,36.3,24.9,30.13,NW,321,2.0,9.0,63,0.02,,---,0.05,VWS V14.01,2013-02-24 21:24:00,
2013-02-24 16:29:00,36.3,24.5,30.13,NW,313,5.0,9.0,62,0.02,,---,0.05,VWS V14.01,2013-02-24 21:29:00,
2013-02-24 16:30:00,35.6,23.9,30.13,West,277,1.0,5.0,62,0.01,,---,0.06,VWS V14.01,2013-02-24 21:30:00,
2013-02-24 16:34:00,36.3,24.5,30.13,NW,308,5.0,5.0,62,0.01,,---,0.05,VWS V14.01,2013-02-24 21:34:00,
2013-02-24 16:39:00,36.3,24.1,30.13,NNW,332,4.0,7.0,61,0.01,,---,0.05,VWS V14.01,2013-02-24 21:39:00,
2013-02-24 16:44:00,36.1,24.0,30.12,NNW,337,2.0,7.0,61,0.01,,---,0.05,VWS V14.01,2013-02-24 21:44:00,
2013-02-24 16:49:00,36.0,25.0,30.12,NW,308,2.0,7.0,64,0.01,,---,0.05,VWS V14.01,2013-02-24 21:49:00,
2013-02-24 16:54:00,35.9,24.5,30.12,NW,326,3.0,7.0,63,0.01,,---,0.05,VWS V14.01,2013-02-24 21:54:00,
2013-02-24 16:59:00,35.9,24.2,30.13,West,263,1.0,7.0,62,0.01,,---,0.05,VWS V14.01,2013-02-24 21:59:00,
2013-02-24 17:00:00,34.4,23.9,30.14,WSW,240,0.0,4.0,65,0.01,,---,0.06,VWS V14.01,2013-02-24 22:00:00,
2013-02-24 17:04:00,36.0,23.9,30.13,WNW,300,4.0,5.0,61,0.00,,---,0.05,VWS V14.01,2013-02-24 22:04:00,
2013-02-24 17:09:00,35.9,24.2,30.13,NW,316,4.0,5.0,62,0.01,,---,0.06,VWS V14.01,2013-02-24 22:09:00,
2013-02-24 17:14:00,35.8,24.5,30.13,NW,308,2.0,5.0,63,0.01,,---,0.06,VWS V14.01,2013-02-24 22:14:00,
2013-02-24 17:19:00,35.7,24.4,30.13,WSW,249,2.0,5.0,63,0.01,,---,0.06,VWS V14.01,2013-02-24 22:19:00,
2013-02-24 17:24:00,35.6,23.9,30.13,NW,304,0.0,5.0,62,0.01,,---,0.06,VWS V14.01,2013-02-24 22:24:00,
2013-02-24 17:29:00,35.6,24.3,30.13,WNW,291,1.0,5.0,63,0.01,,---,0.06,VWS V14.01,2013-02-24 22:29:00,
2013-02-24 17:30:00,31.6,23.0,30.15,NW,309,0.0,1.0,70,0.01,,---,0.06,VWS V14.01,2013-02-24 22:30:00,
2013-02-24 17:34:00,35.6,23.9,30.14,SSW,205,1.0,3.0,62,0.01,,---,0.06,VWS V14.01,2013-02-24 22:34:00,
2013-02-24 17:39:00,35.6,24.3,30.14,WSW,255,1.0,3.0,63,0.01,,---,0.06,VWS V14.01,2013-02-24 22:39:00,
2013-02-24 17:44:00,35.4,23.7,30.13,WSW,243,2.0,3.0,62,0.01,,---,0.06,VWS V14.01,2013-02-24 22:44:00,
2013-02-24 17:49:00,35.0,23.7,30.14,WNW,295,0.0,4.0,63,0.01,,---,0.06,VWS V14.01,2013-02-24 22:49:00,
2013-02-24 17:54:00,34.7,23.8,30.14,WNW,288,0.0,4.0,64,0.01,,---,0.06,VWS V14.01,2013-02-24 22:54:00,
2013-02-24 17:59:00,34.5,24.0,30.14,WSW,240,0.0,4.0,65,0.01,,---,0.06,VWS V14.01,2013-02-24 22:59:00,
2013-02-24 18:00:00,29.6,22.3,30.15,NW,309,0.0,0.0,74,0.00,,---,0.06,VWS V14.01,2013-02-24 23:00:00,
2013-02-24 18:04:00,34.1,23.6,30.14,WSW,249,0.0,1.0,65,0.01,,---,0.06,VWS V14.01,2013-02-24 23:04:00,
2013-02-24 18:09:00,33.6,23.5,30.14,WSW,249,0.0,1.0,66,0.01,,---,0.06,VWS V14.01,2013-02-24 23:09:00,
2013-02-24 18:15:00,33.1,23.4,30.14,WSW,249,0.0,1.0,67,0.01,,---,0.06,VWS V14.01,2013-02-24 23:15:00,
2013-02-24 18:20:00,32.8,23.1,30.14,WSW,246,0.0,1.0,67,0.01,,---,0.06,VWS V14.01,2013-02-24 23:20:00,
2013-02-24 18:25:00,32.5,23.5,30.15,WSW,246,0.0,1.0,69,0.01,,---,0.06,VWS V14.01,2013-02-24 23:25:00,
2013-02-24 18:30:00,31.9,23.2,30.15,NW,309,0.0,1.0,70,0.01,,---,0.06,VWS V14.01,2013-02-24 23:30:00,
2013-02-24 18:35:00,31.3,23.0,30.15,NW,309,0.0,0.0,71,0.00,,---,0.06,VWS V14.01,2013-02-24 23:35:00,
2013-02-24 18:40:00,30.9,22.6,30.15,NW,309,0.0,0.0,71,0.00,,---,0.06,VWS V14.01,2013-02-24 23:40:00,
2013-02-24 18:45:00,30.5,22.6,30.15,NW,309,0.0,0.0,72,0.00,,---,0.06,VWS V14.01,2013-02-24 23:45:00,
2013-02-24 18:50:00,30.1,22.5,30.15,NW,309,0.0,0.0,73,0.00,,---,0.06,VWS V14.01,2013-02-24 23:50:00,
2013-02-24 18:55:00,29.8,22.2,30.15,NW,309,0.0,0.0,73,0.00,,---,0.06,VWS V14.01,2013-02-24 23:55:00,
2013-02-24 19:00:00,29.7,22.4,30.15,NW,309,0.0,0.0,74,0.00,,---,0.06,VWS V14.01,2013-02-25 00:00:00,
2013-02-24 19:05:00,29.6,22.4,30.15,NW,309,0.0,0.0,74,0.00,,---,0.06,VWS V14.01,2013-02-25 00:05:00,
2013-02-24 19:10:00,29.4,22.1,30.15,NW,309,0.0,0.0,74,0.00,,---,0.06,VWS V14.01,2013-02-25 00:10:00,
2013-02-24 19:15:00,28.9,22.0,30.15,NW,309,0.0,0.0,75,0.00,,---,0.06,VWS V14.01,2013-02-25 00:15:00,
2013-02-24 19:20:00,28.5,21.9,30.16,NW,309,0.0,0.0,76,0.00,,---,0.06,VWS V14.01,2013-02-25 00:20:00,
2013-02-24 19:25:00,28.1,21.8,30.16,NW,309,0.0,0.0,77,0.00,,---,0.06,VWS V14.01,2013-02-25 00:25:00,
2013-02-24 19:30:00,27.8,22.1,30.16,NW,309,0.0,0.0,79,0.00,,---,0.06,VWS V14.01,2013-02-25 00:30:00,
2013-02-24 19:35:00,27.6,22.0,30.16,NW,309,0.0,0.0,79,0.00,,---,0.06,VWS V14.01,2013-02-25 00:35:00,
2013-02-24 19:40:00,27.5,21.9,30.16,NW,309,0.0,0.0,79,0.00,,---,0.06,VWS V14.01,2013-02-25 00:40:00,
2013-02-24 19:45:00,27.4,21.8,30.16,NW,309,0.0,0.0,79,0.00,,---,0.06,VWS V14.01,2013-02-25 00:45:00,
2013-02-24 19:50:00,27.2,21.9,30.17,NW,309,0.0,0.0,80,0.00,,---,0.06,VWS V14.01,2013-02-25 00:50:00,
2013-02-24 19:55:00,26.9,21.9,30.17,NW,309,0.0,0.0,81,0.00,,---,0.06,VWS V14.01,2013-02-25 00:55:00,
2013-02-24 20:00:00,26.5,21.2,30.17,NW,309,0.0,0.0,80,0.00,,---,0.06,VWS V14.01,2013-02-25 01:00:00,
2013-02-24 20:05:00,26.1,21.4,30.17,NW,309,0.0,0.0,82,0.00,,---,0.06,VWS V14.01,2013-02-25 01:05:00,
2013-02-24 20:10:00,26.2,21.5,30.17,NW,309,0.0,0.0,82,0.00,,---,0.06,VWS V14.01,2013-02-25 01:10:00,
2013-02-24 20:15:00,26.4,21.4,30.17,NW,309,0.0,0.0,81,0.00,,---,0.06,VWS V14.01,2013-02-25 01:15:00,
2013-02-24 20:20:00,25.9,20.9,30.17,NW,309,0.0,0.0,81,0.00,,---,0.06,VWS V14.01,2013-02-25 01:20:00,
2013-02-24 20:25:00,25.7,21.3,30.17,NW,309,0.0,0.0,83,0.00,,---,0.06,VWS V14.01,2013-02-25 01:25:00,
2013-02-24 20:30:00,25.8,21.6,30.17,NW,309,0.0,0.0,84,0.00,,---,0.06,VWS V14.01,2013-02-25 01:30:00,
2013-02-24 20:35:00,25.6,21.5,30.17,NW,309,0.0,0.0,84,0.00,,---,0.06,VWS V14.01,2013-02-25 01:35:00,
2013-02-24 20:40:00,25.1,20.7,30.17,NW,309,0.0,0.0,83,0.00,,---,0.06,VWS V14.01,2013-02-25 01:40:00,
2013-02-24 20:45:00,24.9,21.0,30.17,NW,309,0.0,0.0,85,0.00,,---,0.06,VWS V14.01,2013-02-25 01:45:00,
2013-02-24 20:50:00,25.0,21.4,30.17,NW,309,0.0,0.0,86,0.00,,---,0.06,VWS V14.01,2013-02-25 01:50:00,
2013-02-24 20:55:00,25.1,21.5,30.17,NW,309,0.0,0.0,86,0.00,,---,0.06,VWS V14.01,2013-02-25 01:55:00,
2013-02-24 21:00:00,24.8,20.9,30.17,NW,309,0.0,0.0,85,0.00,,---,0.06,VWS V14.01,2013-02-25 02:00:00,
2013-02-24 21:05:00,24.5,20.6,30.17,NW,309,0.0,0.0,85,0.00,,---,0.06,VWS V14.01,2013-02-25 02:05:00,
2013-02-24 21:10:00,24.6,21.0,30.17,NW,309,0.0,0.0,86,0.00,,---,0.06,VWS V14.01,2013-02-25 02:10:00,
2013-02-24 21:15:00,24.6,21.3,30.17,NW,309,0.0,0.0,87,0.00,,---,0.06,VWS V14.01,2013-02-25 02:15:00,
2013-02-24 21:20:00,24.7,21.7,30.17,NW,309,0.0,0.0,88,0.00,,---,0.06,VWS V14.01,2013-02-25 02:20:00,
2013-02-24 21:25:00,24.7,21.4,30.17,NW,309,0.0,0.0,87,0.00,,---,0.06,VWS V14.01,2013-02-25 02:25:00,
2013-02-24 21:30:00,24.3,21.0,30.17,NW,309,0.0,0.0,87,0.00,,---,0.06,VWS V14.01,2013-02-25 02:30:00,
2013-02-24 21:35:00,24.2,21.2,30.17,NW,309,0.0,0.0,88,0.00,,---,0.06,VWS V14.01,2013-02-25 02:35:00,
2013-02-24 21:40:00,24.3,21.3,30.17,NW,309,0.0,0.0,88,0.00,,---,0.06,VWS V14.01,2013-02-25 02:40:00,
2013-02-24 21:45:00,24.0,21.0,30.17,NW,309,0.0,0.0,88,0.00,,---,0.06,VWS V14.01,2013-02-25 02:45:00,
2013-02-24 21:50:00,23.8,20.8,30.17,NW,309,0.0,0.0,88,0.00,,---,0.06,VWS V14.01,2013-02-25 02:50:00,
2013-02-24 21:56:00,23.7,20.7,30.17,NW,309,0.0,0.0,88,0.00,,---,0.06,VWS V14.01,2013-02-25 02:56:00,
2013-02-24 22:00:00,22.4,19.9,30.17,NW,309,0.0,0.0,90,0.00,,---,0.06,VWS V14.01,2013-02-25 03:00:00,
2013-02-24 22:01:00,23.2,19.9,30.17,NW,309,0.0,0.0,87,0.00,,---,0.06,VWS V14.01,2013-02-25 03:01:00,
2013-02-24 22:06:00,23.0,20.0,30.17,NW,309,0.0,0.0,88,0.00,,---,0.06,VWS V14.01,2013-02-25 03:06:00,
2013-02-24 22:11:00,22.9,20.1,30.17,NW,309,0.0,0.0,89,0.00,,---,0.06,VWS V14.01,2013-02-25 03:11:00,
2013-02-24 22:16:00,23.2,20.7,30.18,NW,309,0.0,0.0,90,0.00,,---,0.06,VWS V14.01,2013-02-25 03:16:00,
2013-02-24 22:21:00,23.2,20.7,30.17,NW,309,0.0,0.0,90,0.00,,---,0.06,VWS V14.01,2013-02-25 03:21:00,
2013-02-24 22:26:00,23.1,20.4,30.17,NW,309,0.0,0.0,89,0.00,,---,0.06,VWS V14.01,2013-02-25 03:26:00,
2013-02-24 22:30:00,21.5,19.3,30.18,NW,309,0.0,0.0,91,0.00,,---,0.06,VWS V14.01,2013-02-25 03:30:00,
2013-02-24 22:31:00,23.0,20.5,30.17,NW,309,0.0,0.0,90,0.00,,---,0.06,VWS V14.01,2013-02-25 03:31:00,
2013-02-24 22:36:00,23.1,20.6,30.17,NW,309,0.0,0.0,90,0.00,,---,0.06,VWS V14.01,2013-02-25 03:36:00,
2013-02-24 22:41:00,23.1,20.6,30.17,NW,309,0.0,0.0,90,0.00,,---,0.06,VWS V14.01,2013-02-25 03:41:00,
2013-02-24 22:46:00,22.8,20.3,30.17,NW,309,0.0,0.0,90,0.00,,---,0.06,VWS V14.01,2013-02-25 03:46:00,
2013-02-24 22:51:00,22.7,20.2,30.17,NW,309,0.0,0.0,90,0.00,,---,0.06,VWS V14.01,2013-02-25 03:51:00,
2013-02-24 22:56:00,22.6,20.4,30.17,NW,309,0.0,0.0,91,0.00,,---,0.06,VWS V14.01,2013-02-25 03:56:00,
2013-02-24 23:00:00,20.9,19.0,30.18,NW,309,0.0,0.0,92,0.00,,---,0.00,VWS V14.01,2013-02-25 04:00:00,
2013-02-24 23:01:00,22.4,19.9,30.18,NW,309,0.0,0.0,90,0.00,,---,0.06,VWS V14.01,2013-02-25 04:01:00,
2013-02-24 23:06:00,22.3,20.1,30.17,NW,309,0.0,0.0,91,0.00,,---,0.06,VWS V14.01,2013-02-25 04:06:00,
2013-02-24 23:11:00,22.4,20.2,30.18,NW,309,0.0,0.0,91,0.00,,---,0.06,VWS V14.01,2013-02-25 04:11:00,
2013-02-24 23:16:00,22.0,19.5,30.17,NW,309,0.0,0.0,90,0.00,,---,0.06,VWS V14.01,2013-02-25 04:16:00,
2013-02-24 23:21:00,21.7,19.2,30.17,NW,309,0.0,0.0,90,0.00,,---,0.06,VWS V14.01,2013-02-25 04:21:00,
2013-02-24 23:26:00,21.6,19.4,30.17,NW,309,0.0,0.0,91,0.00,,---,0.06,VWS V14.01,2013-02-25 04:26:00,
2013-02-24 23:30:00,21.7,20.0,30.17,NW,309,0.0,0.0,93,0.00,,---,0.00,VWS V14.01,2013-02-25 04:30:00,
2013-02-24 23:31:00,21.5,19.3,30.18,NW,309,0.0,0.0,91,0.00,,---,0.06,VWS V14.01,2013-02-25 04:31:00,
2013-02-24 23:36:00,21.3,19.1,30.18,NW,309,0.0,0.0,91,0.00,,---,0.06,VWS V14.01,2013-02-25 04:36:00,
2013-02-24 23:41:00,21.3,19.1,30.18,NW,309,0.0,0.0,91,0.00,,---,0.06,VWS V14.01,2013-02-25 04:41:00,
2013-02-24 23:46:00,21.3,19.3,30.18,NW,309,0.0,0.0,92,0.00,,---,0.06,VWS V14.01,2013-02-25 04:46:00,
2013-02-24 23:51:00,21.2,19.2,30.18,NW,309,0.0,0.0,92,0.00,,---,0.06,VWS V14.01,2013-02-25 04:51:00,
2013-02-24 23:56:00,21.0,19.0,30.18,NW,309,0.0,0.0,92,0.00,,---,0.06,VWS V14.01,2013-02-25 04:56:00,